Вернуться в каталог

EZIE-A

АктивенНаукаSSO
NORAD 63247·PAYLOAD·🇺🇸 United States

Запущен Mar 15, 2025 с Vandenberg Space Force Base

Loading…

Ближайшие Пролёты (ближайшие 24 часа)

TLE

СвежийSource: Space-Track

Эпоха: Sep 13, 2026, 16:59 UTC

1 63247U 25052AP  26256.70776018  .00002870  00000-0  24871-3 0  9995
2 63247  97.6755 147.4332 0001077 251.6004 108.5101 14.97884456 81911

Отслеживайте EZIE-A в реальном времени с AllMySat

Download on the App Store